This is the latest recevied weather packets stored in our database for station/object KO5MO-3. If no packets are shown the sender has not sent any weather packets the latest 10 day(s).
| Time | Temp. | Humidity | Pressure | Rain* | Wind** | Luminosity | Snow |
|---|---|---|---|---|---|---|---|
| 1777532897 | 22.78° C | 30% | 1009 hPa | 0 mm | - | - | - |
| 1777532597 | 22.22° C | 30% | 1008.9 hPa | 0 mm | - | - | - |
| 1777532297 | 22.22° C | 30% | 1008.9 hPa | 0 mm | - | - | - |
| 1777531997 | 22.22° C | 29% | 1008.9 hPa | 0 mm | - | - | - |
| 1777531697 | 21.67° C | 31% | 1008.8 hPa | 0 mm | - | - | - |
| 1777531397 | 22.22° C | 30% | 1008.7 hPa | 0 mm | - | - | - |
| 1777531097 | 22.78° C | 28% | 1008.7 hPa | 0 mm | - | - | - |
| 1777530797 | 22.78° C | 29% | 1008.7 hPa | 0 mm | - | - | - |
| 1777530497 | 22.22° C | 29% | 1008.8 hPa | 0 mm | - | - | - |
| 1777530197 | 22.78° C | 28% | 1008.8 hPa | 0 mm | - | - | - |
| 1777529897 | 22.78° C | 29% | 1008.9 hPa | 0 mm | - | - | - |
| 1777529597 | 22.78° C | 29% | 1008.9 hPa | 0 mm | - | - | - |
| 1777529297 | 22.78° C | 29% | 1008.9 hPa | 0 mm | - | - | - |
| 1777528997 | 23.33° C | 28% | 1008.8 hPa | 0 mm | - | - | - |
| 1777528697 | 23.33° C | 28% | 1008.9 hPa | 0 mm | - | - | - |
| 1777528397 | 23.33° C | 28% | 1008.9 hPa | 0 mm | - | - | - |
| 1777528097 | 22.78° C | 28% | 1008.9 hPa | 0 mm | - | - | - |
| 1777527797 | 22.22° C | 28% | 1008.9 hPa | 0 mm | - | - | - |
| 1777527497 | 22.78° C | 28% | 1008.9 hPa | 0 mm | - | - | - |
| 1777527197 | 23.33° C | 27% | 1008.9 hPa | 0 mm | - | - | - |
| 1777526897 | 23.89° C | 26% | 1008.8 hPa | 0 mm | - | - | - |
| 1777526597 | 24.44° C | 26% | 1009 hPa | 0 mm | - | - | - |
| 1777526297 | 25° C | 25% | 1009.1 hPa | 0 mm | - | - | - |
| 1777525997 | 25° C | 25% | 1009 hPa | 0 mm | - | - | - |
| 1777525697 | 25.56° C | 25% | 1008.9 hPa | 0 mm | - | - | - |
* Rain latest hour (hover to see other rain measurements)
** Current wind speed in m/s (hover to see current wind gust speed)